Time,TemperatureF,DewpointF,PressureIn,WindDirection,WindDirectionDegrees,WindSpeedMPH,WindSpeedGustMPH,Humidity,HourlyPrecipIn,Conditions,Clouds,dailyrainin,SoftwareType,DateUTC
2013-08-05 00:01:00,66.4,59.4,30.04,NNE,24,13.0,20.0,78,0.00,,,0.00,meteohub,2013-08-05 04:01:00,
2013-08-05 00:02:00,66.4,59.0,30.04,NNE,17,13.0,20.0,77,0.00,,,0.00,meteohub,2013-08-05 04:02:00,
2013-08-05 00:07:00,66.2,57.7,30.04,NNE,22,16.0,20.0,74,0.00,,,0.00,meteohub,2013-08-05 04:07:00,
2013-08-05 00:12:00,66.0,58.6,30.04,North,10,16.0,21.0,77,0.00,,,0.00,meteohub,2013-08-05 04:12:00,
2013-08-05 00:17:00,66.0,58.3,30.04,NNE,31,18.0,21.0,76,0.00,,,0.00,meteohub,2013-08-05 04:17:00,
2013-08-05 00:22:00,65.8,57.7,30.03,NNE,26,14.0,21.0,75,0.00,,,0.00,meteohub,2013-08-05 04:22:00,
2013-08-05 00:27:00,65.8,58.5,30.03,NNE,28,14.0,18.0,77,0.00,,,0.00,meteohub,2013-08-05 04:27:00,
2013-08-05 00:32:00,65.8,59.2,30.03,NNE,32,13.0,18.0,79,0.00,,,0.00,meteohub,2013-08-05 04:32:00,
2013-08-05 00:37:00,65.8,58.8,30.04,NNE,27,13.0,18.0,78,0.00,,,0.00,meteohub,2013-08-05 04:37:00,
2013-08-05 00:42:00,65.8,58.5,30.03,NE,43,14.0,16.0,77,0.00,,,0.00,meteohub,2013-08-05 04:42:00,
2013-08-05 00:47:00,65.8,58.1,30.04,North,0,12.0,17.0,76,0.00,,,0.00,meteohub,2013-08-05 04:47:00,
2013-08-05 00:52:00,65.8,58.5,30.03,NNE,29,13.0,17.0,77,0.00,,,0.00,meteohub,2013-08-05 04:52:00,
2013-08-05 00:58:00,65.8,58.8,30.03,NNE,32,12.0,16.0,78,0.00,,,0.00,meteohub,2013-08-05 04:58:00,
2013-08-05 01:03:00,65.7,58.6,30.03,NE,42,12.0,16.0,78,0.00,,,0.00,meteohub,2013-08-05 05:03:00,
2013-08-05 01:08:00,65.7,57.9,30.03,NE,40,15.0,16.0,76,0.00,,,0.00,meteohub,2013-08-05 05:08:00,
2013-08-05 01:13:00,65.7,57.6,30.03,NNE,31,13.0,16.0,75,0.00,,,0.00,meteohub,2013-08-05 05:13:00,
2013-08-05 01:18:00,65.7,57.9,30.03,NNE,20,13.0,19.0,76,0.00,,,0.00,meteohub,2013-08-05 05:18:00,
2013-08-05 01:23:00,65.7,58.3,30.03,NE,52,13.0,19.0,77,0.00,,,0.00,meteohub,2013-08-05 05:23:00,
2013-08-05 01:28:00,65.5,57.7,30.03,North,0,12.0,19.0,76,0.00,,,0.00,meteohub,2013-08-05 05:28:00,
2013-08-05 01:33:00,65.7,58.6,30.03,NE,42,14.0,16.0,78,0.00,,,0.00,meteohub,2013-08-05 05:33:00,
2013-08-05 01:38:00,65.5,58.1,30.03,NE,51,12.0,16.0,77,0.00,,,0.00,meteohub,2013-08-05 05:38:00,
2013-08-05 01:43:00,65.5,58.1,30.03,NE,55,12.0,15.0,77,0.00,,,0.00,meteohub,2013-08-05 05:43:00,
2013-08-05 01:48:00,65.5,57.4,30.03,NE,40,13.0,15.0,75,0.00,,,0.00,meteohub,2013-08-05 05:48:00,
2013-08-05 01:53:00,65.1,57.7,30.03,NE,51,11.0,15.0,77,0.00,,,0.00,meteohub,2013-08-05 05:53:00,
2013-08-05 01:58:00,65.1,58.1,30.03,NNE,26,12.0,15.0,78,0.00,,,0.00,meteohub,2013-08-05 05:58:00,
2013-08-05 02:04:00,64.9,58.3,30.02,NE,34,11.0,14.0,79,0.00,,,0.00,meteohub,2013-08-05 06:04:00,
2013-08-05 02:09:00,64.9,58.3,30.02,NE,40,11.0,14.0,79,0.00,,,0.00,meteohub,2013-08-05 06:09:00,
2013-08-05 02:14:00,64.9,58.3,30.03,NE,39,11.0,14.0,79,0.00,,,0.00,meteohub,2013-08-05 06:14:00,
2013-08-05 02:19:00,64.9,58.3,30.03,NE,38,11.0,14.0,79,0.00,,,0.00,meteohub,2013-08-05 06:19:00,
2013-08-05 02:24:00,64.9,58.3,30.03,NE,34,8.0,13.0,79,0.00,,,0.00,meteohub,2013-08-05 06:24:00,
2013-08-05 02:29:00,64.9,57.9,30.03,NE,34,10.0,13.0,78,0.00,,,0.00,meteohub,2013-08-05 06:29:00,
2013-08-05 02:34:00,65.1,59.2,30.03,NE,38,10.0,13.0,81,0.00,,,0.00,meteohub,2013-08-05 06:34:00,
2013-08-05 02:39:00,65.1,58.8,30.03,NE,48,9.0,13.0,80,0.00,,,0.00,meteohub,2013-08-05 06:39:00,
2013-08-05 02:44:00,64.9,58.3,30.03,NE,42,7.0,13.0,79,0.00,,,0.00,meteohub,2013-08-05 06:44:00,
2013-08-05 02:49:00,64.8,58.1,30.03,ENE,67,3.0,12.0,79,0.00,,,0.00,meteohub,2013-08-05 06:49:00,
2013-08-05 02:54:00,63.9,56.5,30.04,SE,140,6.0,13.0,77,0.00,,,0.00,meteohub,2013-08-05 06:54:00,
2013-08-05 02:59:00,63.0,56.3,30.04,SSE,149,3.0,13.0,79,0.00,,,0.00,meteohub,2013-08-05 06:59:00,
2013-08-05 03:04:00,62.4,56.5,30.04,SSE,155,2.0,13.0,81,0.00,,,0.00,meteohub,2013-08-05 07:04:00,
2013-08-05 03:09:00,62.1,55.4,30.04,SSE,154,2.0,7.0,79,0.00,,,0.00,meteohub,2013-08-05 07:09:00,
2013-08-05 03:14:00,61.9,55.9,30.04,SSE,159,3.0,7.0,81,0.00,,,0.00,meteohub,2013-08-05 07:14:00,
2013-08-05 03:19:00,61.3,55.0,30.04,SSE,167,1.0,5.0,80,0.00,,,0.00,meteohub,2013-08-05 07:19:00,
2013-08-05 03:25:00,61.2,54.9,30.04,SSE,165,4.0,5.0,80,0.00,,,0.00,meteohub,2013-08-05 07:25:00,
2013-08-05 03:30:00,61.0,55.0,30.04,South,174,4.0,5.0,81,0.00,,,0.00,meteohub,2013-08-05 07:30:00,
2013-08-05 03:35:00,60.4,54.5,30.05,SSE,167,5.0,6.0,81,0.00,,,0.00,meteohub,2013-08-05 07:35:00,
2013-08-05 03:40:00,60.1,54.9,30.05,South,173,3.0,6.0,83,0.00,,,0.00,meteohub,2013-08-05 07:40:00,
2013-08-05 03:45:00,59.7,54.5,30.05,South,169,5.0,6.0,83,0.00,,,0.00,meteohub,2013-08-05 07:45:00,
2013-08-05 03:50:00,59.5,54.3,30.05,South,178,4.0,6.0,83,0.00,,,0.00,meteohub,2013-08-05 07:50:00,
2013-08-05 03:55:00,59.5,54.0,30.05,South,173,3.0,6.0,82,0.00,,,0.00,meteohub,2013-08-05 07:55:00,
2013-08-05 04:00:00,59.5,54.7,30.05,South,174,4.0,6.0,84,0.00,,,0.00,meteohub,2013-08-05 08:00:00,
2013-08-05 04:05:00,59.2,53.6,30.05,SSE,167,5.0,5.0,82,0.00,,,0.00,meteohub,2013-08-05 08:05:00,
2013-08-05 04:10:00,59.2,53.6,30.05,SSE,168,5.0,6.0,82,0.00,,,0.00,meteohub,2013-08-05 08:10:00,
2013-08-05 04:15:00,59.0,54.1,30.05,South,174,4.0,6.0,84,0.00,,,0.00,meteohub,2013-08-05 08:15:00,
2013-08-05 04:20:00,59.0,54.1,30.06,South,174,4.0,6.0,84,0.00,,,0.00,meteohub,2013-08-05 08:20:00,
2013-08-05 04:25:00,59.0,54.1,30.06,South,169,3.0,6.0,84,0.00,,,0.00,meteohub,2013-08-05 08:25:00,
2013-08-05 04:30:00,59.0,54.1,30.06,South,173,7.0,7.0,84,0.00,,,0.00,meteohub,2013-08-05 08:30:00,
2013-08-05 04:36:00,58.6,54.1,30.06,South,174,5.0,7.0,85,0.00,,,0.00,meteohub,2013-08-05 08:36:00,
2013-08-05 04:40:00,58.5,54.0,30.05,South,172,6.0,7.0,85,0.00,,,0.00,meteohub,2013-08-05 08:40:00,
2013-08-05 04:46:00,58.3,53.4,30.05,South,175,5.0,7.0,84,0.00,,,0.00,meteohub,2013-08-05 08:46:00,
2013-08-05 04:51:00,58.1,53.6,30.06,South,173,4.0,7.0,85,0.00,,,0.00,meteohub,2013-08-05 08:51:00,
2013-08-05 04:57:00,57.9,53.4,30.06,South,171,7.0,7.0,85,0.00,,,0.00,meteohub,2013-08-05 08:57:00,
2013-08-05 05:02:00,57.9,53.4,30.06,South,172,5.0,7.0,85,0.00,,,0.00,meteohub,2013-08-05 09:02:00,
2013-08-05 05:07:00,57.7,53.2,30.06,South,173,6.0,8.0,85,0.00,,,0.00,meteohub,2013-08-05 09:07:00,
2013-08-05 05:12:00,57.7,53.2,30.06,South,173,6.0,9.0,85,0.00,,,0.00,meteohub,2013-08-05 09:12:00,
2013-08-05 05:16:00,57.6,53.4,30.06,South,169,6.0,9.0,86,0.00,,,0.00,meteohub,2013-08-05 09:16:00,
2013-08-05 05:22:00,57.6,53.1,30.06,South,170,6.0,9.0,85,0.00,,,0.00,meteohub,2013-08-05 09:22:00,
2013-08-05 05:27:00,57.4,53.2,30.06,South,169,6.0,9.0,86,0.00,,,0.00,meteohub,2013-08-05 09:27:00,
2013-08-05 05:32:00,57.0,52.9,30.06,South,178,10.0,10.0,86,0.00,,,0.00,meteohub,2013-08-05 09:32:00,
2013-08-05 05:37:00,57.0,52.9,30.06,South,173,6.0,10.0,86,0.00,,,0.00,meteohub,2013-08-05 09:37:00,
2013-08-05 05:43:00,57.0,52.9,30.06,South,178,5.0,10.0,86,0.00,,,0.00,meteohub,2013-08-05 09:43:00,
2013-08-05 05:47:00,57.0,53.2,30.06,South,175,7.0,10.0,87,0.00,,,0.00,meteohub,2013-08-05 09:47:00,
2013-08-05 05:53:00,57.0,52.9,30.06,South,171,6.0,8.0,86,0.00,,,0.00,meteohub,2013-08-05 09:53:00,
2013-08-05 05:58:00,57.0,52.5,30.06,SSE,164,8.0,9.0,85,0.00,,,0.00,meteohub,2013-08-05 09:58:00,
2013-08-05 06:03:00,57.0,52.9,30.06,South,176,6.0,9.0,86,0.00,,,0.00,meteohub,2013-08-05 10:03:00,
2013-08-05 06:08:00,57.0,52.9,30.07,SSE,167,5.0,9.0,86,0.00,,,0.00,meteohub,2013-08-05 10:08:00,
2013-08-05 06:14:00,57.0,52.5,30.06,South,171,9.0,9.0,85,0.00,,,0.00,meteohub,2013-08-05 10:14:00,
2013-08-05 06:19:00,57.0,52.5,30.06,South,173,6.0,10.0,85,0.00,,,0.00,meteohub,2013-08-05 10:19:00,
2013-08-05 06:25:00,56.8,52.7,30.06,South,169,10.0,10.0,86,0.00,,,0.00,meteohub,2013-08-05 10:25:00,
2013-08-05 06:30:00,56.8,52.7,30.06,SSE,167,8.0,11.0,86,0.00,,,0.00,meteohub,2013-08-05 10:30:00,
2013-08-05 06:35:00,56.8,52.3,30.06,South,175,10.0,11.0,85,0.00,,,0.00,meteohub,2013-08-05 10:35:00,
2013-08-05 06:39:00,56.8,52.3,30.07,South,171,9.0,11.0,85,0.00,,,0.00,meteohub,2013-08-05 10:39:00,
2013-08-05 06:45:00,56.8,52.3,30.07,South,177,6.0,11.0,85,0.00,,,0.00,meteohub,2013-08-05 10:45:00,
2013-08-05 06:50:00,57.0,52.5,30.06,SSE,167,10.0,11.0,85,0.00,,,0.00,meteohub,2013-08-05 10:50:00,
2013-08-05 06:55:00,56.8,52.3,30.07,South,169,9.0,11.0,85,0.00,,,0.00,meteohub,2013-08-05 10:55:00,
2013-08-05 07:00:00,57.2,52.7,30.07,South,169,9.0,11.0,85,0.00,,,0.00,meteohub,2013-08-05 11:00:00,
2013-08-05 07:05:00,57.4,52.9,30.07,South,171,7.0,11.0,85,0.00,,,0.00,meteohub,2013-08-05 11:05:00,
2013-08-05 07:10:00,57.7,53.2,30.07,South,171,9.0,11.0,85,0.00,,,0.00,meteohub,2013-08-05 11:10:00,
2013-08-05 07:15:00,57.9,53.1,30.08,South,182,9.0,11.0,84,0.00,,,0.00,meteohub,2013-08-05 11:15:00,
2013-08-05 07:21:00,58.3,53.4,30.08,South,178,9.0,11.0,84,0.00,,,0.00,meteohub,2013-08-05 11:21:00,
2013-08-05 07:26:00,58.6,53.8,30.08,South,178,9.0,11.0,84,0.00,,,0.00,meteohub,2013-08-05 11:26:00,
2013-08-05 07:31:00,59.0,53.8,30.08,SSE,166,5.0,11.0,83,0.00,,,0.00,meteohub,2013-08-05 11:31:00,
2013-08-05 07:36:00,59.0,53.8,30.08,SSE,165,9.0,11.0,83,0.00,,,0.00,meteohub,2013-08-05 11:36:00,
2013-08-05 07:41:00,59.4,53.8,30.08,SSE,165,8.0,10.0,82,0.00,,,0.00,meteohub,2013-08-05 11:41:00,
2013-08-05 07:46:00,59.7,54.1,30.08,SSE,160,5.0,10.0,82,0.00,,,0.00,meteohub,2013-08-05 11:46:00,
2013-08-05 07:52:00,60.1,54.5,30.08,SSE,163,5.0,10.0,82,0.00,,,0.00,meteohub,2013-08-05 11:52:00,
2013-08-05 07:57:00,60.3,54.3,30.07,SSE,163,6.0,10.0,81,0.00,,,0.00,meteohub,2013-08-05 11:57:00,
2013-08-05 08:01:00,60.6,54.7,30.07,South,184,4.0,10.0,81,0.00,,,0.00,meteohub,2013-08-05 12:01:00,
2013-08-05 08:07:00,61.2,54.9,30.07,South,188,9.0,10.0,80,0.00,,,0.00,meteohub,2013-08-05 12:07:00,
2013-08-05 08:12:00,61.3,55.0,30.07,South,172,3.0,10.0,80,0.00,,,0.00,meteohub,2013-08-05 12:12:00,
2013-08-05 08:17:00,61.7,55.0,30.07,South,189,5.0,10.0,79,0.00,,,0.00,meteohub,2013-08-05 12:17:00,
2013-08-05 08:22:00,62.2,55.9,30.07,South,172,2.0,10.0,80,0.00,,,0.00,meteohub,2013-08-05 12:22:00,
2013-08-05 08:27:00,62.8,55.8,30.07,SSE,167,5.0,10.0,78,0.00,,,0.00,meteohub,2013-08-05 12:27:00,
2013-08-05 08:32:00,63.1,55.8,30.07,North,0,2.0,9.0,77,0.00,,,0.00,meteohub,2013-08-05 12:32:00,
2013-08-05 08:37:00,63.5,55.4,30.07,North,0,4.0,7.0,75,0.00,,,0.00,meteohub,2013-08-05 12:37:00,
2013-08-05 08:42:00,64.0,56.3,30.07,North,0,4.0,7.0,76,0.00,,,0.00,meteohub,2013-08-05 12:42:00,
2013-08-05 08:47:00,64.2,55.8,30.07,South,184,4.0,7.0,74,0.00,,,0.00,meteohub,2013-08-05 12:47:00,
2013-08-05 08:52:00,64.2,55.8,30.07,SSW,202,5.0,9.0,74,0.00,,,0.00,meteohub,2013-08-05 12:52:00,
2013-08-05 08:58:00,64.6,56.1,30.07,SSW,195,6.0,9.0,74,0.00,,,0.00,meteohub,2013-08-05 12:58:00,
2013-08-05 09:03:00,64.8,55.9,30.07,SSW,211,4.0,9.0,73,0.00,,,0.00,meteohub,2013-08-05 13:03:00,
2013-08-05 09:08:00,64.8,55.6,30.07,SSW,210,3.0,8.0,72,0.00,,,0.00,meteohub,2013-08-05 13:08:00,
2013-08-05 09:13:00,64.9,54.9,30.07,SW,215,3.0,8.0,70,0.00,,,0.00,meteohub,2013-08-05 13:13:00,
2013-08-05 09:18:00,65.3,54.9,30.07,SW,216,2.0,7.0,69,0.00,,,0.00,meteohub,2013-08-05 13:18:00,
2013-08-05 09:23:00,65.5,54.7,30.07,SW,218,2.0,6.0,68,0.00,,,0.00,meteohub,2013-08-05 13:23:00,
2013-08-05 09:28:00,65.7,55.2,30.07,ESE,103,1.0,6.0,69,0.00,,,0.00,meteohub,2013-08-05 13:28:00,
2013-08-05 09:34:00,66.0,55.2,30.06,South,186,3.0,8.0,68,0.00,,,0.00,meteohub,2013-08-05 13:34:00,
2013-08-05 09:39:00,66.2,55.4,30.06,SSW,192,3.0,8.0,68,0.00,,,0.00,meteohub,2013-08-05 13:39:00,
2013-08-05 09:45:00,66.0,55.2,30.06,SSW,208,4.0,6.0,68,0.00,,,0.00,meteohub,2013-08-05 13:45:00,
2013-08-05 09:50:00,66.0,55.2,30.07,SSW,206,0.0,7.0,68,0.00,,,0.00,meteohub,2013-08-05 13:50:00,
2013-08-05 09:55:00,66.2,54.5,30.07,SSW,209,3.0,9.0,66,0.00,,,0.00,meteohub,2013-08-05 13:55:00,
2013-08-05 10:00:00,66.4,55.0,30.07,SSE,160,1.0,9.0,67,0.00,,,0.00,meteohub,2013-08-05 14:00:00,
2013-08-05 10:05:00,66.7,55.0,30.07,SW,227,2.0,9.0,66,0.00,,,0.00,meteohub,2013-08-05 14:05:00,
2013-08-05 10:10:00,66.7,54.1,30.06,SSW,208,3.0,6.0,64,0.00,,,0.00,meteohub,2013-08-05 14:10:00,
2013-08-05 10:16:00,67.3,54.7,30.06,SW,231,2.0,6.0,64,0.00,,,0.00,meteohub,2013-08-05 14:16:00,
2013-08-05 10:21:00,67.3,54.7,30.06,NW,308,0.0,6.0,64,0.00,,,0.00,meteohub,2013-08-05 14:21:00,
2013-08-05 10:26:00,67.6,55.4,30.06,NW,313,2.0,4.0,65,0.00,,,0.00,meteohub,2013-08-05 14:26:00,
2013-08-05 10:31:00,66.9,54.9,30.06,East,100,2.0,7.0,65,0.00,,,0.00,meteohub,2013-08-05 14:31:00,
2013-08-05 10:36:00,67.1,54.5,30.06,East,100,2.0,7.0,64,0.00,,,0.00,meteohub,2013-08-05 14:36:00,
2013-08-05 10:42:00,66.9,54.9,30.06,East,100,0.0,7.0,65,0.00,,,0.00,meteohub,2013-08-05 14:42:00,
2013-08-05 10:47:00,66.9,55.2,30.06,NW,309,4.0,4.0,66,0.00,,,0.00,meteohub,2013-08-05 14:47:00,
2013-08-05 10:52:00,66.7,55.0,30.06,NW,309,3.0,5.0,66,0.00,,,0.00,meteohub,2013-08-05 14:52:00,
2013-08-05 10:57:00,66.7,54.7,30.06,NW,309,5.0,6.0,65,0.00,,,0.00,meteohub,2013-08-05 14:57:00,
2013-08-05 11:03:00,66.9,55.2,30.06,NW,309,2.0,6.0,66,0.00,,,0.00,meteohub,2013-08-05 15:03:00,
2013-08-05 11:07:00,66.7,55.0,30.06,NW,306,9.0,9.0,66,0.00,,,0.00,meteohub,2013-08-05 15:07:00,
2013-08-05 11:12:00,66.7,55.8,30.06,NW,304,5.0,9.0,68,0.00,,,0.00,meteohub,2013-08-05 15:12:00,
2013-08-05 11:18:00,66.7,55.8,30.06,NW,313,5.0,9.0,68,0.00,,,0.00,meteohub,2013-08-05 15:18:00,
2013-08-05 11:22:00,66.7,55.8,30.06,NW,312,6.0,9.0,68,0.00,,,0.00,meteohub,2013-08-05 15:22:00,
2013-08-05 11:28:00,66.6,55.2,30.06,WNW,297,7.0,9.0,67,0.00,,,0.00,meteohub,2013-08-05 15:28:00,
2013-08-05 11:33:00,66.4,55.6,30.06,WNW,301,5.0,9.0,68,0.00,,,0.00,meteohub,2013-08-05 15:33:00,
2013-08-05 11:38:00,66.6,56.1,30.06,NW,325,5.0,9.0,69,0.00,,,0.00,meteohub,2013-08-05 15:38:00,
2013-08-05 11:43:00,66.6,55.2,30.06,NW,308,4.0,9.0,67,0.00,,,0.00,meteohub,2013-08-05 15:43:00,
2013-08-05 11:49:00,66.6,55.2,30.06,NW,320,7.0,9.0,67,0.00,,,0.00,meteohub,2013-08-05 15:49:00,
2013-08-05 11:54:00,66.7,56.3,30.05,NW,306,7.0,9.0,69,0.00,,,0.00,meteohub,2013-08-05 15:54:00,
2013-08-05 11:59:00,66.7,55.8,30.05,NNW,330,8.0,9.0,68,0.00,,,0.00,meteohub,2013-08-05 15:59:00,
2013-08-05 12:04:00,66.7,55.4,30.05,NW,322,5.0,9.0,67,0.00,,,0.00,meteohub,2013-08-05 16:04:00,
2013-08-05 12:09:00,66.7,55.4,30.05,NW,310,5.0,9.0,67,0.00,,,0.00,meteohub,2013-08-05 16:09:00,
2013-08-05 12:14:00,66.7,55.8,30.04,NW,321,5.0,11.0,68,0.00,,,0.00,meteohub,2013-08-05 16:14:00,
2013-08-05 12:19:00,66.9,55.9,30.05,NW,325,5.0,11.0,68,0.00,,,0.00,meteohub,2013-08-05 16:19:00,
2013-08-05 12:24:00,66.9,56.5,30.04,NNW,329,7.0,11.0,69,0.00,,,0.00,meteohub,2013-08-05 16:24:00,
2013-08-05 12:30:00,66.7,55.8,30.05,NNW,348,7.0,9.0,68,0.00,,,0.00,meteohub,2013-08-05 16:30:00,
2013-08-05 12:35:00,66.7,55.8,30.05,NNW,346,4.0,9.0,68,0.00,,,0.00,meteohub,2013-08-05 16:35:00,
2013-08-05 12:40:00,66.9,56.5,30.04,North,355,5.0,9.0,69,0.00,,,0.00,meteohub,2013-08-05 16:40:00,
2013-08-05 12:45:00,66.7,55.8,30.04,North,9,4.0,9.0,68,0.00,,,0.00,meteohub,2013-08-05 16:45:00,
2013-08-05 12:50:00,66.7,55.4,30.04,North,5,7.0,9.0,67,0.00,,,0.00,meteohub,2013-08-05 16:50:00,
2013-08-05 12:56:00,66.9,55.9,30.04,North,5,7.0,9.0,68,0.00,,,0.00,meteohub,2013-08-05 16:56:00,
2013-08-05 13:02:00,67.3,56.8,30.04,North,355,4.0,9.0,69,0.00,,,0.00,meteohub,2013-08-05 17:02:00,
2013-08-05 13:07:00,67.3,56.3,30.04,North,355,2.0,9.0,68,0.00,,,0.00,meteohub,2013-08-05 17:07:00,
2013-08-05 13:12:00,67.3,56.3,30.04,North,355,4.0,9.0,68,0.00,,,0.00,meteohub,2013-08-05 17:12:00,
2013-08-05 13:17:00,67.1,55.8,30.04,North,355,1.0,10.0,67,0.00,,,0.00,meteohub,2013-08-05 17:17:00,
2013-08-05 13:22:00,67.3,56.3,30.04,North,5,3.0,10.0,68,0.00,,,0.00,meteohub,2013-08-05 17:22:00,
2013-08-05 13:27:00,67.5,56.5,30.04,NNW,338,9.0,10.0,68,0.00,,,0.00,meteohub,2013-08-05 17:27:00,
2013-08-05 13:32:00,67.3,56.3,30.03,NNW,346,9.0,10.0,68,0.00,,,0.00,meteohub,2013-08-05 17:32:00,
2013-08-05 13:37:00,66.9,55.6,30.04,North,0,3.0,10.0,67,0.00,,,0.00,meteohub,2013-08-05 17:37:00,
2013-08-05 13:43:00,67.3,56.8,30.03,North,9,4.0,12.0,69,0.00,,,0.00,meteohub,2013-08-05 17:43:00,
2013-08-05 13:48:00,67.5,56.5,30.03,North,5,2.0,12.0,68,0.00,,,0.00,meteohub,2013-08-05 17:48:00,
2013-08-05 13:54:00,67.5,56.1,30.03,NNW,336,7.0,7.0,67,0.00,,,0.00,meteohub,2013-08-05 17:54:00,
2013-08-05 13:59:00,67.3,56.3,30.03,NNW,344,5.0,10.0,68,0.00,,,0.00,meteohub,2013-08-05 17:59:00,
2013-08-05 14:05:00,67.3,56.3,30.03,NNW,344,4.0,11.0,68,0.00,,,0.00,meteohub,2013-08-05 18:05:00,
2013-08-05 14:10:00,67.3,56.3,30.03,North,5,6.0,9.0,68,0.00,,,0.00,meteohub,2013-08-05 18:10:00,
2013-08-05 14:15:00,67.3,56.8,30.03,North,0,7.0,9.0,69,0.00,,,0.00,meteohub,2013-08-05 18:15:00,
2013-08-05 14:20:00,67.3,56.3,30.02,North,349,9.0,9.0,68,0.00,,,0.00,meteohub,2013-08-05 18:20:00,
2013-08-05 14:26:00,67.1,56.1,30.02,North,355,6.0,10.0,68,0.00,,,0.00,meteohub,2013-08-05 18:26:00,
2013-08-05 14:31:00,67.1,56.7,30.02,NNE,24,4.0,10.0,69,0.00,,,0.00,meteohub,2013-08-05 18:31:00,
2013-08-05 14:36:00,67.3,57.2,30.02,North,9,4.0,10.0,70,0.00,,,0.00,meteohub,2013-08-05 18:36:00,
2013-08-05 14:41:00,67.3,56.3,30.02,North,9,7.0,7.0,68,0.00,,,0.00,meteohub,2013-08-05 18:41:00,
2013-08-05 14:47:00,67.5,57.0,30.01,North,5,5.0,8.0,69,0.00,,,0.00,meteohub,2013-08-05 18:47:00,
2013-08-05 14:52:00,67.6,57.0,30.02,NNE,14,6.0,10.0,69,0.00,,,0.00,meteohub,2013-08-05 18:52:00,
2013-08-05 14:57:00,67.6,57.0,30.02,North,349,4.0,10.0,69,0.00,,,0.00,meteohub,2013-08-05 18:57:00,
2013-08-05 15:02:00,67.5,57.0,30.02,NNW,338,6.0,10.0,69,0.00,,,0.00,meteohub,2013-08-05 19:02:00,
2013-08-05 15:07:00,67.3,56.8,30.02,North,11,4.0,8.0,69,0.00,,,0.00,meteohub,2013-08-05 19:07:00,
2013-08-05 15:12:00,67.3,56.8,30.02,North,355,5.0,8.0,69,0.00,,,0.00,meteohub,2013-08-05 19:12:00,
2013-08-05 15:17:00,67.3,56.8,30.02,NNW,347,2.0,8.0,69,0.00,,,0.00,meteohub,2013-08-05 19:17:00,
2013-08-05 15:22:00,67.5,57.0,30.02,NNW,347,3.0,8.0,69,0.00,,,0.00,meteohub,2013-08-05 19:22:00,
2013-08-05 15:27:00,67.5,57.4,30.01,North,355,4.0,9.0,70,0.00,,,0.00,meteohub,2013-08-05 19:27:00,
2013-08-05 15:32:00,67.5,57.0,30.01,NNE,19,4.0,9.0,69,0.00,,,0.00,meteohub,2013-08-05 19:32:00,
2013-08-05 15:37:00,67.5,57.0,30.01,North,5,5.0,9.0,69,0.00,,,0.00,meteohub,2013-08-05 19:37:00,
2013-08-05 15:42:00,67.5,57.4,30.01,North,5,3.0,7.0,70,0.00,,,0.00,meteohub,2013-08-05 19:42:00,
2013-08-05 15:47:00,67.5,57.4,30.01,NNW,348,4.0,6.0,70,0.00,,,0.00,meteohub,2013-08-05 19:47:00,
2013-08-05 15:52:00,67.5,57.4,30.01,NNW,340,6.0,9.0,70,0.00,,,0.00,meteohub,2013-08-05 19:52:00,
2013-08-05 15:58:00,67.3,56.3,30.01,NNW,342,3.0,9.0,68,0.00,,,0.00,meteohub,2013-08-05 19:58:00,
2013-08-05 16:03:00,67.3,56.8,30.02,NNW,342,4.0,9.0,69,0.00,,,0.00,meteohub,2013-08-05 20:03:00,
2013-08-05 16:08:00,67.3,56.8,30.02,NNW,346,2.0,7.0,69,0.00,,,0.00,meteohub,2013-08-05 20:08:00,
2013-08-05 16:13:00,67.5,57.4,30.02,North,0,3.0,6.0,70,0.00,,,0.00,meteohub,2013-08-05 20:13:00,
2013-08-05 16:18:00,67.5,57.4,30.02,NNW,333,4.0,5.0,70,0.00,,,0.00,meteohub,2013-08-05 20:18:00,
2013-08-05 16:23:00,67.5,57.0,30.02,NNE,12,3.0,9.0,69,0.00,,,0.00,meteohub,2013-08-05 20:23:00,
2013-08-05 16:29:00,67.6,57.9,30.02,North,0,2.0,9.0,71,0.00,,,0.00,meteohub,2013-08-05 20:29:00,
2013-08-05 16:34:00,68.0,57.4,30.01,North,5,3.0,9.0,69,0.00,,,0.00,meteohub,2013-08-05 20:34:00,
2013-08-05 16:40:00,67.8,57.2,30.02,North,5,2.0,6.0,69,0.00,,,0.00,meteohub,2013-08-05 20:40:00,
2013-08-05 16:45:00,68.0,57.9,30.02,North,5,0.0,5.0,70,0.00,,,0.00,meteohub,2013-08-05 20:45:00,
2013-08-05 16:50:00,67.8,57.2,30.01,NNW,332,2.0,4.0,69,0.00,,,0.00,meteohub,2013-08-05 20:50:00,
2013-08-05 16:55:00,67.8,57.2,30.01,NNW,332,0.0,4.0,69,0.00,,,0.00,meteohub,2013-08-05 20:55:00,
2013-08-05 17:00:00,68.4,57.7,30.01,NNW,332,0.0,4.0,69,0.00,,,0.00,meteohub,2013-08-05 21:00:00,
2013-08-05 17:05:00,68.7,57.4,30.01,NNW,333,2.0,3.0,67,0.00,,,0.00,meteohub,2013-08-05 21:05:00,
2013-08-05 17:10:00,68.5,57.2,30.01,NNW,333,0.0,3.0,67,0.00,,,0.00,meteohub,2013-08-05 21:10:00,
2013-08-05 17:15:00,68.5,57.9,30.01,NNW,333,2.0,4.0,69,0.00,,,0.00,meteohub,2013-08-05 21:15:00,
2013-08-05 17:20:00,68.4,57.4,30.01,NW,322,1.0,4.0,68,0.00,,,0.00,meteohub,2013-08-05 21:20:00,
2013-08-05 17:26:00,68.2,57.6,30.01,NW,322,2.0,4.0,69,0.00,,,0.00,meteohub,2013-08-05 21:26:00,
2013-08-05 17:31:00,68.2,57.6,30.01,NW,322,2.0,4.0,69,0.00,,,0.00,meteohub,2013-08-05 21:31:00,
2013-08-05 17:36:00,68.2,57.6,30.01,NW,322,0.0,4.0,69,0.00,,,0.00,meteohub,2013-08-05 21:36:00,
2013-08-05 17:42:00,68.4,57.7,30.00,NW,322,0.0,4.0,69,0.00,,,0.00,meteohub,2013-08-05 21:42:00,
2013-08-05 17:47:00,68.5,57.6,30.00,NW,322,2.0,4.0,68,0.00,,,0.00,meteohub,2013-08-05 21:47:00,
2013-08-05 17:52:00,68.4,57.7,30.00,NW,322,2.0,2.0,69,0.00,,,0.00,meteohub,2013-08-05 21:52:00,
2013-08-05 17:57:00,67.8,57.2,30.00,NW,322,0.0,3.0,69,0.00,,,0.00,meteohub,2013-08-05 21:57:00,
2013-08-05 18:02:00,67.8,57.7,30.00,NW,322,1.0,3.0,70,0.00,,,0.00,meteohub,2013-08-05 22:02:00,
2013-08-05 18:07:00,68.0,57.9,30.00,NW,322,1.0,3.0,70,0.00,,,0.00,meteohub,2013-08-05 22:07:00,
2013-08-05 18:13:00,68.0,58.3,30.00,NW,322,0.0,2.0,71,0.00,,,0.00,meteohub,2013-08-05 22:13:00,
2013-08-05 18:18:00,68.0,57.9,30.00,NW,322,0.0,3.0,70,0.00,,,0.00,meteohub,2013-08-05 22:18:00,
2013-08-05 18:23:00,68.0,58.3,30.00,NW,322,0.0,3.0,71,0.00,,,0.00,meteohub,2013-08-05 22:23:00,
2013-08-05 18:28:00,67.8,58.5,30.00,NW,322,0.0,3.0,72,0.00,,,0.00,meteohub,2013-08-05 22:28:00,
2013-08-05 18:33:00,68.0,58.3,29.99,NW,322,0.0,1.0,71,0.00,,,0.00,meteohub,2013-08-05 22:33:00,
2013-08-05 18:38:00,68.2,58.5,29.99,NW,322,0.0,0.0,71,0.00,,,0.00,meteohub,2013-08-05 22:38:00,
2013-08-05 18:43:00,68.4,58.6,29.99,NW,322,0.0,0.0,71,0.00,,,0.00,meteohub,2013-08-05 22:43:00,
2013-08-05 18:48:00,68.4,58.6,29.99,NW,322,0.0,0.0,71,0.00,,,0.00,meteohub,2013-08-05 22:48:00,
2013-08-05 18:53:00,68.2,58.1,29.99,NW,322,0.0,0.0,70,0.00,,,0.00,meteohub,2013-08-05 22:53:00,
2013-08-05 18:58:00,68.4,58.6,29.99,NW,322,0.0,0.0,71,0.00,,,0.00,meteohub,2013-08-05 22:58:00,
2013-08-05 19:04:00,69.1,59.7,29.99,NW,322,0.0,0.0,72,0.00,,,0.00,meteohub,2013-08-05 23:04:00,
2013-08-05 19:09:00,69.8,59.2,29.99,NW,322,0.0,0.0,69,0.00,,,0.00,meteohub,2013-08-05 23:09:00,
2013-08-05 19:14:00,70.5,59.4,29.99,NW,322,0.0,0.0,68,0.00,,,0.00,meteohub,2013-08-05 23:14:00,
2013-08-05 19:19:00,70.5,59.4,29.98,NW,322,0.0,0.0,68,0.00,,,0.00,meteohub,2013-08-05 23:19:00,
2013-08-05 19:24:00,69.8,58.8,29.99,NW,322,0.0,0.0,68,0.00,,,0.00,meteohub,2013-08-05 23:24:00,
2013-08-05 19:29:00,69.1,58.8,29.99,NW,322,0.0,0.0,70,0.00,,,0.00,meteohub,2013-08-05 23:29:00,
2013-08-05 19:34:00,68.5,58.8,29.99,NW,323,0.0,0.0,71,0.00,,,0.00,meteohub,2013-08-05 23:34:00,
2013-08-05 19:39:00,68.2,59.2,29.99,NNE,13,1.0,0.0,73,0.00,,,0.00,meteohub,2013-08-05 23:39:00,
2013-08-05 19:45:00,68.2,59.5,29.99,NNE,13,0.0,3.0,74,0.00,,,0.00,meteohub,2013-08-05 23:45:00,
2013-08-05 19:50:00,67.8,58.8,29.99,NNE,13,0.0,3.0,73,0.00,,,0.00,meteohub,2013-08-05 23:50:00,
2013-08-05 19:55:00,67.8,58.8,29.99,NNE,13,0.0,2.0,73,0.00,,,0.00,meteohub,2013-08-05 23:55:00,
2013-08-05 20:00:00,67.8,59.5,29.98,NNE,27,4.0,4.0,75,0.00,,,0.00,meteohub,2013-08-06 00:00:00,
2013-08-05 20:05:00,67.8,59.5,29.98,NNE,27,1.0,4.0,75,0.00,,,0.00,meteohub,2013-08-06 00:05:00,
2013-08-05 20:10:00,67.6,59.0,29.98,NNE,28,1.0,4.0,74,0.00,,,0.00,meteohub,2013-08-06 00:10:00,
2013-08-05 20:15:00,67.6,59.0,29.98,NNE,28,0.0,4.0,74,0.00,,,0.00,meteohub,2013-08-06 00:15:00,
2013-08-05 20:20:00,67.6,59.7,29.98,NNE,28,1.0,4.0,76,0.00,,,0.00,meteohub,2013-08-06 00:20:00,
2013-08-05 20:25:00,67.5,60.1,29.98,NNE,28,2.0,2.0,77,0.00,,,0.00,meteohub,2013-08-06 00:25:00,
2013-08-05 20:30:00,67.3,59.5,29.98,NNE,28,1.0,2.0,76,0.00,,,0.00,meteohub,2013-08-06 00:30:00,
2013-08-05 20:35:00,67.3,59.9,29.98,NNE,28,1.0,2.0,77,0.00,,,0.00,meteohub,2013-08-06 00:35:00,
2013-08-05 20:41:00,67.3,60.3,29.98,NNE,28,1.0,2.0,78,0.00,,,0.00,meteohub,2013-08-06 00:41:00,
2013-08-05 20:46:00,66.9,59.5,29.98,NNE,28,1.0,3.0,77,0.00,,,0.00,meteohub,2013-08-06 00:46:00,
2013-08-05 20:51:00,66.9,59.9,29.98,NNE,28,0.0,3.0,78,0.00,,,0.00,meteohub,2013-08-06 00:51:00,
2013-08-05 20:57:00,66.9,59.9,29.98,NNE,29,0.0,3.0,78,0.00,,,0.00,meteohub,2013-08-06 00:57:00,
2013-08-05 21:02:00,66.7,59.7,29.98,NNE,28,0.0,2.0,78,0.00,,,0.00,meteohub,2013-08-06 01:02:00,
2013-08-05 21:07:00,66.7,60.1,29.98,NNE,29,1.0,1.0,79,0.00,,,0.00,meteohub,2013-08-06 01:07:00,
2013-08-05 21:12:00,66.6,59.5,29.98,NNE,29,1.0,1.0,78,0.00,,,0.00,meteohub,2013-08-06 01:12:00,
2013-08-05 21:17:00,66.6,60.3,29.98,NNE,28,0.0,1.0,80,0.00,,,0.00,meteohub,2013-08-06 01:17:00,
2013-08-05 21:22:00,66.4,60.4,29.98,NNE,29,1.0,1.0,81,0.00,,,0.00,meteohub,2013-08-06 01:22:00,
2013-08-05 21:27:00,66.2,59.5,29.98,NNE,32,0.0,2.0,79,0.00,,,0.00,meteohub,2013-08-06 01:27:00,
2013-08-05 21:32:00,66.4,60.4,29.98,NE,34,0.0,2.0,81,0.00,,,0.00,meteohub,2013-08-06 01:32:00,
2013-08-05 21:38:00,66.2,59.9,29.98,NE,34,0.0,2.0,80,0.00,,,0.00,meteohub,2013-08-06 01:38:00,
2013-08-05 21:43:00,66.0,59.7,29.98,NE,34,0.0,1.0,80,0.00,,,0.00,meteohub,2013-08-06 01:43:00,
2013-08-05 21:48:00,66.0,59.4,29.98,NE,38,0.0,0.0,79,0.00,,,0.00,meteohub,2013-08-06 01:48:00,
2013-08-05 21:53:00,66.0,60.1,29.97,NE,42,1.0,0.0,81,0.00,,,0.00,meteohub,2013-08-06 01:53:00,
2013-08-05 21:58:00,66.0,59.7,29.97,NE,48,2.0,3.0,80,0.00,,,0.00,meteohub,2013-08-06 01:58:00,
2013-08-05 22:03:00,66.0,59.7,29.97,NE,49,2.0,3.0,80,0.00,,,0.00,meteohub,2013-08-06 02:03:00,
2013-08-05 22:09:00,65.8,59.5,29.97,NE,51,2.0,3.0,80,0.00,,,0.00,meteohub,2013-08-06 02:09:00,
2013-08-05 22:14:00,65.7,59.7,29.97,East,85,3.0,3.0,81,0.00,,,0.00,meteohub,2013-08-06 02:14:00,
2013-08-05 22:19:00,65.7,60.1,29.97,ESE,107,3.0,4.0,82,0.00,,,0.00,meteohub,2013-08-06 02:19:00,
2013-08-05 22:24:00,65.5,59.9,29.97,ESE,113,2.0,4.0,82,0.00,,,0.00,meteohub,2013-08-06 02:24:00,
2013-08-05 22:29:00,65.1,59.9,29.97,ESE,118,2.0,4.0,83,0.00,,,0.00,meteohub,2013-08-06 02:29:00,
2013-08-05 22:35:00,64.9,59.7,29.97,ESE,122,1.0,3.0,83,0.00,,,0.00,meteohub,2013-08-06 02:35:00,
2013-08-05 22:40:00,64.8,59.9,29.97,ESE,123,1.0,3.0,84,0.00,,,0.00,meteohub,2013-08-06 02:40:00,
2013-08-05 22:45:00,64.6,59.7,29.97,SE,146,5.0,5.0,84,0.00,,,0.00,meteohub,2013-08-06 02:45:00,
2013-08-05 22:50:00,64.6,59.7,29.97,SSE,154,3.0,5.0,84,0.00,,,0.00,meteohub,2013-08-06 02:50:00,
2013-08-05 22:55:00,64.4,59.5,29.97,SSE,156,5.0,5.0,84,0.00,,,0.00,meteohub,2013-08-06 02:55:00,
2013-08-05 23:01:00,64.2,59.4,29.96,SSE,156,4.0,6.0,84,0.00,,,0.00,meteohub,2013-08-06 03:01:00,
2013-08-05 23:06:00,64.0,59.4,29.96,SSE,157,2.0,6.0,85,0.00,,,0.00,meteohub,2013-08-06 03:06:00,
2013-08-05 23:11:00,64.0,59.4,29.96,SSE,166,3.0,6.0,85,0.00,,,0.00,meteohub,2013-08-06 03:11:00,
2013-08-05 23:16:00,64.0,59.4,29.96,South,169,5.0,6.0,85,0.00,,,0.00,meteohub,2013-08-06 03:16:00,
2013-08-05 23:22:00,64.0,59.4,29.96,SSE,168,6.0,7.0,85,0.00,,,0.00,meteohub,2013-08-06 03:22:00,
2013-08-05 23:27:00,64.0,59.4,29.96,SSE,165,5.0,7.0,85,0.00,,,0.00,meteohub,2013-08-06 03:27:00,
2013-08-05 23:32:00,64.0,59.4,29.96,SSE,165,5.0,7.0,85,0.00,,,0.00,meteohub,2013-08-06 03:32:00,
2013-08-05 23:37:00,64.0,59.2,29.96,South,169,4.0,6.0,84,0.00,,,0.00,meteohub,2013-08-06 03:37:00,
2013-08-05 23:42:00,64.0,59.2,29.96,South,183,9.0,9.0,84,0.00,,,0.00,meteohub,2013-08-06 03:42:00,
2013-08-05 23:47:00,64.2,59.0,29.96,SSE,166,6.0,9.0,83,0.00,,,0.00,meteohub,2013-08-06 03:47:00,
2013-08-05 23:52:00,64.2,58.6,29.96,South,178,9.0,11.0,82,0.00,,,0.00,meteohub,2013-08-06 03:52:00,
2013-08-05 23:57:00,64.6,59.0,29.96,South,175,6.0,11.0,82,0.00,,,0.00,meteohub,2013-08-06 03:57:00,